Facebook Twitter

Wetterstation Braunschweig

Messwerte
  Temperatur Wetter Niederschlag Luftdruck Wind
Fr, 13:20 Uhr 18° - - 1029 hPa 21 km/h O
Fr, 12:50 Uhr 18° - - 1029 hPa 19 km/h O
Fr, 12:20 Uhr 17° - - 1029 hPa 19 km/h O
Fr, 11:50 Uhr 16° - - 1030 hPa 19 km/h SO
Fr, 11:20 Uhr 15° - - 1030 hPa 19 km/h O
Fr, 10:50 Uhr 14° - - 1030 hPa 13 km/h O
Fr, 10:20 Uhr 13° - - 1030 hPa 14 km/h O
Fr, 09:50 Uhr 12° - - 1030 hPa 11 km/h O
Fr, 09:20 Uhr 10° - - 1029 hPa 11 km/h O
Fr, 08:50 Uhr 9° - - 1029 hPa 13 km/h O
Fr, 08:20 Uhr 8° - - 1029 hPa 11 km/h O
Fr, 07:50 Uhr 5° - - 1029 hPa 8 km/h O
Fr, 07:20 Uhr 5° - - 1029 hPa 8 km/h O
Fr, 06:50 Uhr 4° - - 1029 hPa 5 km/h O
Fr, 03:20 Uhr 6° - - 1029 hPa 5 km/h O
Fr, 02:50 Uhr 6° - - 1029 hPa 5 km/h O
Fr, 02:20 Uhr 7° - - 1029 hPa 8 km/h O
Do, 19:20 Uhr 16° - - 1029 hPa 10 km/h O
Do, 18:50 Uhr 17° - - 1029 hPa 10 km/h O
Do, 18:20 Uhr 18° - - 1029 hPa 10 km/h O

Alle Zeitangaben MESZ